Time,TemperatureF,DewpointF,PressureIn,WindDirection,WindDirectionDegrees,WindSpeedMPH,WindSpeedGustMPH,Humidity,HourlyPrecipIn,Conditions,Clouds,dailyrainin,SolarRadiationWatts/m^2,SoftwareType,DateUTC
2013-03-03 00:01:00,66.0,52.0,-100.00,ESE,107,7.0,29.0,60,0.00,,,0.01,0.000000,,2013-03-03 10:01:00,
2013-03-03 00:11:00,66.0,52.0,-100.00,ESE,107,7.0,29.0,60,0.00,,,0.01,0.000000,,2013-03-03 10:11:00,
2013-03-03 00:21:00,66.0,52.0,-100.00,ESE,107,7.0,29.0,60,0.00,,,0.01,0.000000,,2013-03-03 10:21:00,
2013-03-03 00:31:00,66.0,52.0,-100.00,ESE,107,7.0,29.0,60,0.00,,,0.01,0.000000,,2013-03-03 10:31:00,
2013-03-03 00:52:00,67.0,54.0,-100.00,South,176,7.0,22.0,62,0.00,,,0.01,0.000000,,2013-03-03 10:52:00,
2013-03-03 01:01:00,67.0,54.0,-100.00,South,176,7.0,22.0,62,0.00,,,0.01,0.000000,,2013-03-03 11:01:00,
2013-03-03 01:11:00,67.0,54.0,-100.00,South,176,7.0,22.0,62,0.00,,,0.01,0.000000,,2013-03-03 11:11:00,
2013-03-03 01:21:00,67.0,54.0,-100.00,South,176,7.0,22.0,62,0.00,,,0.01,0.000000,,2013-03-03 11:21:00,
2013-03-03 01:31:00,67.0,54.0,-100.00,South,176,7.0,22.0,62,0.00,,,0.01,0.000000,,2013-03-03 11:31:00,
2013-03-03 01:52:00,67.0,51.0,-100.00,SSE,151,6.0,27.0,56,0.00,,,0.01,0.000000,,2013-03-03 11:52:00,
2013-03-03 02:01:00,67.0,51.0,-100.00,SSE,151,6.0,27.0,56,0.00,,,0.01,0.000000,,2013-03-03 12:01:00,
2013-03-03 02:11:00,67.0,51.0,-100.00,SSE,151,6.0,27.0,56,0.00,,,0.01,0.000000,,2013-03-03 12:11:00,
2013-03-03 02:21:00,67.0,51.0,-100.00,SSE,151,6.0,27.0,56,0.00,,,0.01,0.000000,,2013-03-03 12:21:00,
2013-03-03 02:31:00,67.0,51.0,-100.00,SSE,151,6.0,27.0,56,0.00,,,0.01,0.000000,,2013-03-03 12:31:00,
2013-03-03 03:01:00,67.0,54.0,-100.00,North,352,7.0,32.0,62,0.00,,,0.01,0.000000,,2013-03-03 13:01:00,
2013-03-03 03:11:00,67.0,54.0,-100.00,North,352,7.0,32.0,62,0.00,,,0.01,0.000000,,2013-03-03 13:11:00,
2013-03-03 03:21:00,67.0,54.0,-100.00,North,352,7.0,32.0,62,0.00,,,0.01,0.000000,,2013-03-03 13:21:00,
2013-03-03 03:31:00,67.0,54.0,-100.00,North,352,7.0,32.0,62,0.00,,,0.01,0.000000,,2013-03-03 13:31:00,
2013-03-03 04:01:00,66.0,51.0,-100.00,West,277,4.0,24.0,59,0.00,,,0.01,0.000000,,2013-03-03 14:01:00,
2013-03-03 04:11:00,66.0,51.0,-100.00,West,277,4.0,24.0,59,0.00,,,0.01,0.000000,,2013-03-03 14:11:00,
2013-03-03 04:21:00,66.0,51.0,-100.00,West,277,4.0,24.0,59,0.00,,,0.01,0.000000,,2013-03-03 14:21:00,
2013-03-03 04:31:00,66.0,51.0,-100.00,West,277,4.0,24.0,59,0.00,,,0.01,0.000000,,2013-03-03 14:31:00,
2013-03-03 05:01:00,64.0,48.0,-100.00,North,356,6.0,32.0,57,0.00,,,0.01,0.000000,,2013-03-03 15:01:00,
2013-03-03 05:11:00,64.0,48.0,-100.00,North,356,6.0,32.0,57,0.00,,,0.01,0.000000,,2013-03-03 15:11:00,
2013-03-03 05:22:00,64.0,48.0,-100.00,North,356,6.0,32.0,57,0.00,,,0.01,0.000000,,2013-03-03 15:22:00,
2013-03-03 05:31:00,64.0,48.0,-100.00,North,356,6.0,32.0,57,0.00,,,0.01,0.000000,,2013-03-03 15:31:00,
2013-03-03 05:52:00,65.0,49.0,-100.00,NNW,341,12.0,30.0,57,0.00,,,0.01,0.000000,,2013-03-03 15:52:00,
2013-03-03 06:01:00,65.0,49.0,-100.00,NNW,341,12.0,30.0,57,0.00,,,0.01,0.000000,,2013-03-03 16:01:00,
2013-03-03 06:12:00,65.0,49.0,-100.00,NNW,341,12.0,30.0,57,0.00,,,0.01,0.000000,,2013-03-03 16:12:00,
2013-03-03 06:21:00,65.0,49.0,-100.00,NNW,341,12.0,30.0,57,0.00,,,0.01,0.000000,,2013-03-03 16:21:00,
2013-03-03 06:31:00,65.0,49.0,-100.00,NNW,341,12.0,30.0,57,0.00,,,0.01,0.000000,,2013-03-03 16:31:00,
2013-03-03 06:52:00,64.0,49.0,-100.00,SSW,199,5.0,33.0,59,0.00,,,0.01,0.000000,,2013-03-03 16:52:00,
2013-03-03 07:01:00,64.0,49.0,-100.00,SSW,199,5.0,33.0,59,0.00,,,0.01,0.000000,,2013-03-03 17:01:00,
2013-03-03 07:11:00,64.0,49.0,-100.00,SSW,199,5.0,33.0,59,0.00,,,0.01,0.000000,,2013-03-03 17:11:00,
2013-03-03 07:22:00,64.0,49.0,-100.00,SSW,199,5.0,33.0,59,0.00,,,0.01,0.000000,,2013-03-03 17:22:00,
2013-03-03 07:32:00,64.0,49.0,-100.00,SSW,199,5.0,33.0,59,0.00,,,0.01,0.000000,,2013-03-03 17:32:00,
2013-03-03 07:52:00,67.0,52.0,-100.00,South,179,11.0,22.0,59,0.00,,,0.01,0.000000,,2013-03-03 17:52:00,
2013-03-03 08:01:00,67.0,52.0,-100.00,South,179,11.0,22.0,59,0.00,,,0.01,0.000000,,2013-03-03 18:01:00,
2013-03-03 08:11:00,67.0,52.0,-100.00,South,179,11.0,22.0,59,0.00,,,0.01,0.000000,,2013-03-03 18:11:00,
2013-03-03 08:21:00,67.0,52.0,-100.00,South,179,11.0,22.0,59,0.00,,,0.01,0.000000,,2013-03-03 18:21:00,
2013-03-03 08:31:00,67.0,52.0,-100.00,South,179,11.0,22.0,59,0.00,,,0.01,0.000000,,2013-03-03 18:31:00,
2013-03-03 08:52:00,68.0,51.0,-100.00,SSW,211,7.0,22.0,55,0.00,,,0.01,31.000000,,2013-03-03 18:52:00,
2013-03-03 09:01:00,68.0,51.0,-100.00,SSW,211,7.0,22.0,55,0.00,,,0.01,31.000000,,2013-03-03 19:01:00,
2013-03-03 09:11:00,68.0,51.0,-100.00,SSW,211,7.0,22.0,55,0.00,,,0.01,31.000000,,2013-03-03 19:11:00,
2013-03-03 09:21:00,68.0,51.0,-100.00,SSW,211,7.0,22.0,55,0.00,,,0.01,31.000000,,2013-03-03 19:21:00,
2013-03-03 09:31:00,68.0,51.0,-100.00,SSW,211,7.0,22.0,55,0.00,,,0.01,31.000000,,2013-03-03 19:31:00,
2013-03-03 10:01:00,74.0,56.0,-100.00,South,175,8.0,19.0,53,0.00,,,0.01,183.000000,,2013-03-03 20:01:00,
2013-03-03 10:11:00,74.0,56.0,-100.00,South,175,8.0,19.0,53,0.00,,,0.01,183.000000,,2013-03-03 20:11:00,
2013-03-03 10:21:00,74.0,56.0,-100.00,South,175,8.0,19.0,53,0.00,,,0.01,183.000000,,2013-03-03 20:21:00,
2013-03-03 10:32:00,74.0,56.0,-100.00,South,175,8.0,19.0,53,0.00,,,0.01,183.000000,,2013-03-03 20:32:00,
2013-03-03 10:53:00,74.0,56.0,-100.00,South,191,7.0,20.0,53,0.00,,,0.01,450.000000,,2013-03-03 20:53:00,
2013-03-03 11:01:00,74.0,56.0,-100.00,South,191,7.0,20.0,53,0.00,,,0.01,450.000000,,2013-03-03 21:01:00,
2013-03-03 11:11:00,74.0,56.0,-100.00,South,191,7.0,20.0,53,0.00,,,0.01,450.000000,,2013-03-03 21:11:00,
2013-03-03 11:21:00,74.0,56.0,-100.00,South,191,7.0,20.0,53,0.00,,,0.01,450.000000,,2013-03-03 21:21:00,
2013-03-03 11:31:00,74.0,56.0,-100.00,South,191,7.0,20.0,53,0.00,,,0.01,450.000000,,2013-03-03 21:31:00,
2013-03-03 11:52:00,76.0,55.0,-100.00,ENE,77,8.0,21.0,48,0.00,,,0.01,524.000000,,2013-03-03 21:52:00,
2013-03-03 12:01:00,76.0,55.0,-100.00,ENE,77,8.0,21.0,48,0.00,,,0.01,524.000000,,2013-03-03 22:01:00,
2013-03-03 12:11:00,76.0,55.0,-100.00,ENE,77,8.0,21.0,48,0.00,,,0.01,524.000000,,2013-03-03 22:11:00,
2013-03-03 12:21:00,76.0,55.0,-100.00,ENE,77,8.0,21.0,48,0.00,,,0.01,524.000000,,2013-03-03 22:21:00,
2013-03-03 12:31:00,76.0,55.0,-100.00,ENE,77,8.0,21.0,48,0.00,,,0.01,524.000000,,2013-03-03 22:31:00,
2013-03-03 13:01:00,76.0,52.0,-100.00,NE,55,8.0,22.0,44,0.00,,,0.01,879.000000,,2013-03-03 23:01:00,
2013-03-03 13:11:00,76.0,52.0,-100.00,NE,55,8.0,22.0,44,0.00,,,0.01,879.000000,,2013-03-03 23:11:00,
2013-03-03 13:21:00,76.0,52.0,-100.00,NE,55,8.0,22.0,44,0.00,,,0.01,879.000000,,2013-03-03 23:21:00,
2013-03-03 13:31:00,76.0,52.0,-100.00,NE,55,8.0,22.0,44,0.00,,,0.01,879.000000,,2013-03-03 23:31:00,
2013-03-03 13:52:00,75.0,53.0,-100.00,SW,228,8.0,25.0,47,0.00,,,0.01,1194.000000,,2013-03-03 23:52:00,
2013-03-03 14:01:00,75.0,53.0,-100.00,SW,228,8.0,25.0,47,0.00,,,0.01,1194.000000,,2013-03-04 00:01:00,
2013-03-03 14:11:00,75.0,53.0,-100.00,SW,228,8.0,25.0,47,0.00,,,0.01,1194.000000,,2013-03-04 00:11:00,
2013-03-03 14:21:00,75.0,53.0,-100.00,SW,228,8.0,25.0,47,0.00,,,0.01,1194.000000,,2013-03-04 00:21:00,
2013-03-03 14:32:00,75.0,53.0,-100.00,SW,228,8.0,25.0,47,0.00,,,0.01,1194.000000,,2013-03-04 00:32:00,
2013-03-03 15:01:00,77.0,53.0,-100.00,East,84,8.0,24.0,43,0.01,,,0.02,1151.000000,,2013-03-04 01:01:00,
2013-03-03 15:11:00,77.0,53.0,-100.00,East,84,8.0,24.0,43,0.01,,,0.02,1151.000000,,2013-03-04 01:11:00,
2013-03-03 15:21:00,77.0,53.0,-100.00,East,84,8.0,24.0,43,0.01,,,0.02,1151.000000,,2013-03-04 01:21:00,
2013-03-03 15:31:00,77.0,53.0,-100.00,East,84,8.0,24.0,43,0.01,,,0.02,1151.000000,,2013-03-04 01:31:00,
2013-03-03 15:52:00,75.0,50.0,-100.00,SE,135,9.0,23.0,41,0.00,,,0.02,1006.000000,,2013-03-04 01:52:00,
2013-03-03 16:01:00,75.0,50.0,-100.00,SE,135,9.0,23.0,41,0.00,,,0.02,1006.000000,,2013-03-04 02:01:00,
2013-03-03 16:11:00,75.0,50.0,-100.00,SE,135,9.0,23.0,41,0.00,,,0.02,1006.000000,,2013-03-04 02:11:00,
2013-03-03 16:22:00,75.0,50.0,-100.00,SE,135,9.0,23.0,41,0.00,,,0.02,1006.000000,,2013-03-04 02:22:00,
2013-03-03 16:31:00,75.0,50.0,-100.00,SE,135,9.0,23.0,41,0.00,,,0.02,1006.000000,,2013-03-04 02:31:00,
2013-03-03 16:52:00,73.0,50.0,-100.00,East,89,8.0,29.0,45,0.00,,,0.02,898.000000,,2013-03-04 02:52:00,
2013-03-03 17:01:00,73.0,50.0,-100.00,East,89,8.0,29.0,45,0.00,,,0.02,898.000000,,2013-03-04 03:01:00,
2013-03-03 17:11:00,73.0,50.0,-100.00,East,89,8.0,29.0,45,0.00,,,0.02,898.000000,,2013-03-04 03:11:00,
2013-03-03 17:21:00,73.0,50.0,-100.00,East,89,8.0,29.0,45,0.00,,,0.02,898.000000,,2013-03-04 03:21:00,
2013-03-03 17:31:00,73.0,50.0,-100.00,East,89,8.0,29.0,45,0.00,,,0.02,898.000000,,2013-03-04 03:31:00,
2013-03-03 17:52:00,71.0,51.0,-100.00,ESE,121,9.0,25.0,49,0.00,,,0.02,698.000000,,2013-03-04 03:52:00,
2013-03-03 18:01:00,71.0,51.0,-100.00,ESE,121,9.0,25.0,49,0.00,,,0.02,698.000000,,2013-03-04 04:01:00,
2013-03-03 18:11:00,71.0,51.0,-100.00,ESE,121,9.0,25.0,49,0.00,,,0.02,698.000000,,2013-03-04 04:11:00,
2013-03-03 18:22:00,71.0,51.0,-100.00,ESE,121,9.0,25.0,49,0.00,,,0.02,698.000000,,2013-03-04 04:22:00,
2013-03-03 18:31:00,71.0,51.0,-100.00,ESE,121,9.0,25.0,49,0.00,,,0.02,698.000000,,2013-03-04 04:31:00,
2013-03-03 18:52:00,68.0,54.0,-100.00,WSW,257,4.0,22.0,62,0.00,,,0.01,409.000000,,2013-03-04 04:52:00,
2013-03-03 19:01:00,68.0,54.0,-100.00,WSW,257,4.0,22.0,62,0.00,,,0.01,409.000000,,2013-03-04 05:01:00,
2013-03-03 19:11:00,68.0,54.0,-100.00,WSW,257,4.0,22.0,62,0.00,,,0.01,409.000000,,2013-03-04 05:11:00,
2013-03-03 19:22:00,68.0,54.0,-100.00,WSW,257,4.0,22.0,62,0.00,,,0.01,409.000000,,2013-03-04 05:22:00,
2013-03-03 19:31:00,68.0,54.0,-100.00,WSW,257,4.0,22.0,62,0.00,,,0.01,409.000000,,2013-03-04 05:31:00,
2013-03-03 20:01:00,66.0,54.0,-100.00,NE,35,7.0,20.0,66,0.00,,,0.01,77.000000,,2013-03-04 06:01:00,
2013-03-03 20:11:00,66.0,54.0,-100.00,NE,35,7.0,20.0,66,0.00,,,0.01,77.000000,,2013-03-04 06:11:00,
2013-03-03 20:21:00,66.0,54.0,-100.00,NE,35,7.0,20.0,66,0.00,,,0.01,77.000000,,2013-03-04 06:21:00,
2013-03-03 20:31:00,66.0,54.0,-100.00,NE,35,7.0,20.0,66,0.00,,,0.01,77.000000,,2013-03-04 06:31:00,
2013-03-03 21:01:00,66.0,53.0,-100.00,North,5,8.0,28.0,64,0.00,,,0.01,0.000000,,2013-03-04 07:01:00,
2013-03-03 21:11:00,66.0,53.0,-100.00,North,5,8.0,28.0,64,0.00,,,0.01,0.000000,,2013-03-04 07:11:00,
2013-03-03 21:21:00,66.0,53.0,-100.00,North,5,8.0,28.0,64,0.00,,,0.01,0.000000,,2013-03-04 07:21:00,
2013-03-03 21:31:00,66.0,53.0,-100.00,North,5,8.0,28.0,64,0.00,,,0.01,0.000000,,2013-03-04 07:31:00,
2013-03-03 21:52:00,67.0,55.0,-100.00,ENE,67,6.0,30.0,66,0.00,,,0.01,0.000000,,2013-03-04 07:52:00,
2013-03-03 22:01:00,67.0,55.0,-100.00,ENE,67,6.0,30.0,66,0.00,,,0.01,0.000000,,2013-03-04 08:01:00,
2013-03-03 22:11:00,67.0,55.0,-100.00,ENE,67,6.0,30.0,66,0.00,,,0.01,0.000000,,2013-03-04 08:11:00,
2013-03-03 22:21:00,67.0,55.0,-100.00,ENE,67,6.0,30.0,66,0.00,,,0.01,0.000000,,2013-03-04 08:21:00,
2013-03-03 22:31:00,67.0,55.0,-100.00,ENE,67,6.0,30.0,66,0.00,,,0.01,0.000000,,2013-03-04 08:31:00,
2013-03-03 22:52:00,65.0,53.0,-100.00,WNW,303,4.0,21.0,65,0.00,,,0.01,0.000000,,2013-03-04 08:52:00,
2013-03-03 23:01:00,65.0,53.0,-100.00,WNW,303,4.0,21.0,65,0.00,,,0.01,0.000000,,2013-03-04 09:01:00,
2013-03-03 23:11:00,65.0,53.0,-100.00,WNW,303,4.0,21.0,65,0.00,,,0.01,0.000000,,2013-03-04 09:11:00,
2013-03-03 23:21:00,65.0,53.0,-100.00,WNW,303,4.0,21.0,65,0.00,,,0.01,0.000000,,2013-03-04 09:21:00,
2013-03-03 23:31:00,65.0,53.0,-100.00,WNW,303,4.0,21.0,65,0.00,,,0.01,0.000000,,2013-03-04 09:31:00,
2013-03-03 23:52:00,67.0,55.0,-100.00,WSW,251,6.0,26.0,65,0.00,,,0.01,0.000000,,2013-03-04 09:52:00,